Location: Red Deer
(52.2681°N, 113.8112°W)
Time: 15:56:01
(UTC-06:00)

Envisat - Pass Details

Date: 22 April 2024
Orbit: 762 x 764 km, 98.3° (Epoch: 27 May)

Event Time Altitude Azimuth Distance (km) Brightness Sun altitude
Rises 05:00:19 0° 16° (NNE) 3,241 7.2 -11.6°
Reaches altitude 10° 05:02:38 10° 18° (NNE) 2,310 6.4 -11.3°
Maximum altitude 05:07:44 73° 103° (ESE) 802 3.2 -10.7°
Drops below altitude 10° 05:12:47 10° 189° (S) 2,292 5.1 -10.0°
Enters shadow 05:14:25 - 190° (S) 2,950 5.6 -9.8°
